Location: St. Louis
(38.6270°N, 90.1994°W)
Time: 05:01:36
(UTC-05:00)

RS-15 - Pass Details

Date: 04 February 2022
Orbit: 1881 x 2163 km, 64.8° (Epoch: 20 May)

Event Time Altitude Azimuth Distance (km) Brightness Sun altitude
Rises 17:39:32 0° 238° (WSW) 5,414 12.4 -3.3°
Reaches altitude 10° 17:43:04 10° 245° (WSW) 4,453 11.8 -3.9°
Maximum altitude 17:54:00 45° 315° (NW) 2,666 9.0 -6.0°
Drops below altitude 10° 18:05:32 10° 26° (NNE) 4,660 9.6 -8.1°
Sets 18:09:23 0° 33° (NNE) 5,684 10.0 -8.9°
